Location: Altoona
(40.5167°N, 78.4000°W)
Time: 07:55:50
(UTC-04:00)

Daily predictions for brighter satellites

Satellite Brightness Start Highest point End
(mag) Time Altitude Azimuth Time Altitude Azimuth Time Altitude Azimuth
SL-16 R/B 4.3 21:04:06 10° WSW 21:09:09 33° WNW 21:14:15 10° N
BREEZE-M DEB (TANK) 2.2 21:08:37 10° WNW 21:11:20 54° SW 21:13:25 10° SE
Resurs 01 Rocket 4.4 21:09:31 10° SW 21:12:17 16° W 21:15:05 10° NW
SJ-11-01 4.4 21:10:27 10° SSE 21:15:04 66° ENE 21:19:43 10° N
Envisat 3.5 21:17:43 10° SE 21:22:32 46° ENE 21:27:23 10° N
GEOS 3 Rocket 3.7 21:18:43 10° SE 21:23:59 81° NE 21:29:13 10° NNW
Cosmos 407 Rocket 4.2 21:20:10 10° SSE 21:24:50 33° E 21:29:29 10° NE
Milstar 3 Cent rocket 4.5 21:21:52 10° WSW 21:27:01 16° SW 21:30:51 10° S
Cosmos 1515 3.8 21:29:49 10° S 21:33:37 60° E 21:37:25 10° NNE
CZ-2C R/B 1.9 21:32:10 10° S 21:34:17 35° W 21:36:25 10° NNW
Cosmos 1602 Rocket 4.4 21:30:59 10° SSW 21:35:22 55° W 21:39:46 10° N
SL-27 R/B 4.3 21:36:56 12° ESE 21:37:16 12° E 21:38:42 10° ENE
Cosmos 1825 Rocket 3.8 21:34:29 10° SSE 21:38:45 49° E 21:43:02 10° NNE
Cosmos 1066 Rocket 4.4 21:36:08 10° S 21:41:40 55° E 21:47:21 10° NNE
USA 186 4.3 21:42:13 10° SW 21:43:36 13° W 21:44:59 10° WNW
ALOS 4.2 21:41:55 10° SSW 21:45:54 28° W 21:49:54 10° NW
Cosmos 1943 Rocket 3.3 21:41:28 10° N 21:46:21 30° ENE 21:50:21 14° ESE
Cosmos 1812 Rocket 4.0 21:42:36 10° NNW 21:46:58 63° W 21:51:20 10° S
Lacrosse 4 Rocket 1.2 21:43:42 10° SSW 21:47:43 75° ESE 21:51:49 10° NNE
Atlas Centaur 2 3.4 21:48:13 10° WSW 21:54:34 38° S 22:00:12 17° SE
Cosmos 1992 Rocket 4.2 21:50:20 10° NNW 21:55:32 70° WSW 22:00:17 12° S
SeaSat 1 2.8 21:52:49 17° SE 21:56:27 53° ENE 22:01:15 10° NNW
Meteor 1-22 Rocket 4.4 21:52:07 10° N 21:57:44 60° ENE 22:02:15 17° SSE
Cosmos 1943 3.4 21:52:09 10° SSW 21:57:48 79° WNW 22:03:32 10° NNE
ISS -0.6 21:55:43 10° WNW 21:58:20 22° NNW 22:00:58 10° NNE
H-2A R/B 3.1 21:54:17 10° S 21:58:22 44° W 22:02:36 10° NNW
SL-23 DEB 4.4 21:59:32 10° SW 22:06:44 72° SE 22:10:48 10° ENE
USA 81 4.1 22:07:24 10° N 22:12:43 83° W 22:17:13 15° S
CZ-4B R/B 3.5 22:08:53 10° NNE 22:14:02 74° ESE 22:19:12 10° S
CZ-4 R/B 4.1 22:10:03 10° NNE 22:14:57 51° E 22:18:13 20° S
Cosmos 1953 3.5 22:12:35 10° NNE 22:16:01 27° ENE 22:17:07 23° ESE
Cosmos 1939 Rocket 4.3 22:13:07 10° SSW 22:16:55 35° W 22:20:43 10° NNW
PSLV R/B 3.3 22:16:05 10° W 22:19:38 88° S 22:21:15 30° E
Terra 3.2 22:19:03 20° ESE 22:21:01 26° ENE 22:24:55 10° NNE
ARGOS 3.3 22:18:01 24° SE 22:21:17 62° ENE 22:26:39 10° N
ATLAS 3B R/B 3.3 22:14:56 10° SW 22:22:37 71° NW 22:30:09 10° NNE
Cosmos 1346 Rocket 3.2 22:19:41 11° SSW 22:23:28 63° WNW 22:27:23 10° N
SPOT 5 3.4 22:21:02 15° S 22:24:27 47° W 22:28:38 10° NNW
USA 245 4.0 22:21:18 22° SSE 22:25:06 84° ENE 22:29:54 10° N
Cosmos-2242 3.5 22:22:11 10° N 22:26:27 46° ENE 22:28:02 32° SE
Cosmos 1842 3.4 22:25:37 34° SSE 22:27:03 55° E 22:30:54 10° NNE
Cosmos 1953 Rocket 3.9 22:23:11 11° SSW 22:27:27 64° W 22:31:54 10° N
Cosmos 1634 Rocket 4.3 22:21:45 10° NNW 22:27:52 67° W 22:33:07 15° S
MetOp-B 4.4 22:24:18 18° S 22:28:17 67° WSW 22:33:38 10° NNW
Cosmos 1140 Rocket 3.8 22:26:31 25° SSE 22:29:14 47° ESE 22:34:16 10° NNE
H-2A R/B 2.7 22:33:42 28° ESE 22:35:42 40° ENE 22:40:26 10° N
NOSS 3-2 (A) 4.4 22:35:29 25° ESE 22:36:01 25° ESE 22:41:08 10° ENE
Meteor 1-21 4.3 22:31:59 14° S 22:37:03 86° W 22:42:56 10° N
SL-8 R/B 4.3 22:33:20 10° NW 22:38:05 52° NNE 22:41:05 21° E
Cosmos 1607 4.1 22:32:57 14° S 22:38:05 52° ESE 22:44:07 10° NE
Cosmos 676 Rocket 4.4 22:35:01 10° SSW 22:40:18 67° WNW 22:45:37 10° NNE
Cosmos 2369 Rocket 3.3 22:35:36 10° NW 22:40:46 38° WSW 22:44:34 17° SSW
USA 234 3.5 22:37:09 22° ESE 22:41:31 66° NE 22:48:01 10° NW
SPOT 1/Viking Rocket 3.8 22:41:55 25° S 22:44:54 64° WSW 22:50:02 10° NNW
YAOGAN 6 3.5 22:43:54 27° SSW 22:45:31 44° W 22:49:08 10° NNW
Cosmos 2279 Rocket 4.0 22:40:11 10° N 22:46:28 82° W 22:50:14 26° S
Cosmos 1932 4.5 22:41:01 10° SW 22:47:12 81° WNW 22:53:29 10° NNE
Cosmos 614 Rocket 4.3 22:48:02 37° SE 22:49:19 45° ESE 22:54:16 10° NNE
SL-08 RB Rocket 3.7 22:51:28 38° S 22:53:11 76° WSW 22:57:42 10° NNW
Cosmos 1766 4.0 22:49:48 10° NNW 22:53:41 49° W 22:55:14 31° SSW
NOAA 11 4.2 22:51:02 31° S 22:53:45 75° WSW 22:59:11 10° NNW
SAR-Lupe-2 3.6 22:58:16 61° E 22:58:26 62° ENE 23:02:00 10° N
Cosmos 1340 4.0 23:00:50 27° ENE 23:00:50 27° ENE 23:03:25 10° NNE
Meteor 2-5 Rocket 4.4 23:00:29 34° ESE 23:01:40 37° E 23:06:55 10° NNE
Cosmos 1544 3.9 22:58:29 10° N 23:01:55 38° ENE 23:01:55 38° ENE
CARTOSAT-1 3.5 23:02:00 54° SE 23:02:51 70° ENE 23:07:10 10° N
CZ-4C R/B 2.8 23:03:35 34° ESE 23:03:35 34° ESE 23:08:37 10° NE
Cosmos 1758 3.3 23:00:42 10° N 23:04:50 80° W 23:05:36 58° S
Okean 3 Rocket 4.3 23:08:05 36° E 23:08:05 36° E 23:12:02 10° NNE
USA 238 DEB 3.9 23:03:05 10° SW 23:10:11 77° NW 23:17:17 10° NNE
USA 238 3.9 23:03:11 10° SW 23:10:17 77° NW 23:17:23 10° NNE
SL-27 R/B 4.1 23:10:37 20° WSW 23:12:14 30° WNW 23:15:15 10° N
DMSP B5D2-2 4.0 23:11:14 10° NNE 23:16:33 79° ESE 23:18:07 46° S
Cosmos 1470 3.2 23:15:49 10° N 23:19:20 48° ENE 23:19:20 48° ENE
Cosmos 1805 3.5 23:16:13 10° NNW 23:20:06 59° W 23:20:29 56° WSW
IGS 5A 3.3 23:19:53 74° S 23:20:15 87° W 23:24:26 10° NNW
COSMOS 2487 2.8 23:24:51 61° NNE 23:24:51 61° NNE 23:27:54 10° NNE
COSMOS 2406 3.7 23:21:23 15° SW 23:26:06 59° WNW 23:31:47 10° NNE
Cosmos 1943 Rocket 3.1 23:25:01 10° NW 23:30:07 38° WSW 23:31:53 30° SW
Cosmos 1842 Rocket 3.7 23:28:17 10° NNW 23:32:38 63° W 23:33:08 58° SW
Cosmos 1818 4.5 23:27:37 10° NNW 23:32:46 40° NE 23:34:29 31° E
Cosmos 2082 Rocket 4.0 23:34:49 17° E 23:34:49 17° E 23:37:26 10° ENE
SeaSat 1 4.3 23:32:37 17° SW 23:34:13 20° WSW 23:37:47 10° WNW
ISS 0.0 23:34:23 10° NNW 23:35:42 12° N 23:37:02 10° NNE
Cosmos 1656 Rocket 3.7 23:31:23 10° NNW 23:37:03 72° WSW 23:38:15 54° S
CZ-4B R/B 4.2 23:37:33 12° ENE 23:37:33 12° ENE 23:38:44 10° NE
Atlas Centaur 2 3.9 23:37:16 10° WSW 23:42:50 27° SSW 23:42:50 27° SSW
NOSS 3-2 (C) 3.4 23:43:08 53° S 23:44:25 65° ESE 23:50:56 10° NE
Cosmos 1707 3.1 23:50:19 62° N 23:50:19 62° N 23:53:38 10° N
Cosmos 1953 4.3 23:49:23 10° NW 23:52:17 20° W 23:52:53 19° W
Cosmos 1076 Rocket 4.2 23:56:04 43° NE 23:56:04 43° NE 23:59:21 10° NNE
Lacrosse 5 rocket 4.4 23:55:18 10° N 23:56:46 11° NNE 23:58:15 10° NE
